Buoy 41607

sailwx.info

Track history (hours):
 
Tides and Currents Weather Stations Pressure Air Temp Water Temp Dewpoint Dewpoint Depression Visibility Wind Speed Wind Dir Waves Ship Positions

Drifting buoy 41607

Last reported at 2014-Oct-25 06:00 UTC. Time now 2014-Oct-25 09:31 UTC.
Position N 24°38' W 052°17'.

Water temperature 28.1 ° C

Date/timePositionNaut miles runAvg speedWind from/ knotsBaromVisibWave heightAir tempDewpointWater temp
2014-Oct-25 06:00N 24°38' W 052°17'1 0.5 28.1
2014-Oct-25 05:00N 24°37' W 052°17'0 0.0 28.2
2014-Oct-25 04:00N 24°37' W 052°17'0 0.1 28.3
2014-Oct-24 23:00N 24°37' W 052°17'0 0.5 29.0
2014-Oct-24 22:00N 24°37' W 052°18'1 0.8 29.1
2014-Oct-24 21:00N 24°36' W 052°18'0 0.0 29.4
2014-Oct-24 18:00N 24°36' W 052°18'1 1.0 30.1
2014-Oct-24 17:00N 24°36' W 052°19'0 0.1 29.9
2014-Oct-24 16:00N 24°36' W 052°19'0 0.1 29.5
2014-Oct-24 14:00N 24°36' W 052°19'1 1.4 28.6
2014-Oct-24 13:00N 24°34' W 052°20'0 0.0 28.2
2014-Oct-24 12:00N 24°34' W 052°20'0 0.0 27.9
2014-Oct-24 10:00N 24°34' W 052°20'0 0.3 27.8
2014-Oct-24 09:00N 24°34' W 052°20'1 0.8 27.9
2014-Oct-24 08:00N 24°34' W 052°20'0 0.0 27.9
2014-Oct-24 06:00N 24°34' W 052°20'1 0.3 28.0
2014-Oct-24 01:00N 24°33' W 052°21'1 0.8 28.2
2014-Oct-24 00:00N 24°33' W 052°20'0 0.0 28.2
2014-Oct-23 23:00N 24°33' W 052°20'0 0.3 28.4
2014-Oct-23 22:00N 24°33' W 052°21'1 0.3 28.5
2014-Oct-23 20:00N 24°33' W 052°21'1 0.5 29.0
2014-Oct-23 19:00N 24°33' W 052°22'2 0.5 29.3
2014-Oct-23 16:00N 24°32' W 052°23'0 0.0 28.8
2014-Oct-23 14:00N 24°32' W 052°23'1 0.5 28.3
2014-Oct-23 12:00N 24°31' W 052°24'0 0.0 27.8
2014-Oct-23 11:00N 24°31' W 052°24'0 0.1 27.7
2014-Oct-23 10:00N 24°31' W 052°24'0 0.1 27.7
2014-Oct-23 07:00N 24°31' W 052°24'0 0.4 27.8
2014-Oct-23 06:00N 24°31' W 052°25'1 0.4 27.8
2014-Oct-23 02:00N 24°31' W 052°27'0 0.0 27.9
2014-Oct-23 01:00N 24°31' W 052°27'0 0.0 28.0
2014-Oct-22 23:00N 24°31' W 052°27'1 0.2 28.1
2014-Oct-22 20:00N 24°30' W 052°27'0 0.2 28.3
2014-Oct-22 18:00N 24°30' W 052°27'1 0.8 28.4
2014-Oct-22 17:00N 24°30' W 052°28'0 0.0 28.4
2014-Oct-22 16:00N 24°30' W 052°28'2 0.9 28.3
2014-Oct-22 14:00N 24°30' W 052°30'0 0.0 27.9
2014-Oct-22 12:00N 24°30' W 052°30'0 0.0 27.7
2014-Oct-22 11:00N 24°30' W 052°30'0 0.0 27.7
2014-Oct-22 10:00N 24°30' W 052°30'0 0.2 27.6
2014-Oct-22 09:00N 24°30' W 052°30'0 0.4 27.7
2014-Oct-22 08:00N 24°30' W 052°30'0 0.0 27.7
2014-Oct-22 07:00N 24°30' W 052°30'2 0.2 27.7
2014-Oct-22 00:00N 24°30' W 052°32'1 0.9 27.8
2014-Oct-21 23:00N 24°30' W 052°33'0 0.0 27.9
2014-Oct-21 22:00N 24°30' W 052°33'0 0.0 27.9
2014-Oct-21 21:00N 24°30' W 052°33'0 0.0 28.0
2014-Oct-21 20:00N 24°30' W 052°33'0 0.2 28.1
2014-Oct-21 18:00N 24°31' W 052°33'0 0.1 28.0
2014-Oct-21 14:00N 24°31' W 052°33'2 0.4 27.8
2014-Oct-21 10:00N 24°32' W 052°34'0 0.1 27.6
2014-Oct-21 09:00N 24°32' W 052°34'1 0.7 27.6
2014-Oct-21 08:00N 24°32' W 052°35'1 0.2 27.6
2014-Oct-21 01:00N 24°33' W 052°36'1 1.4 27.6
2014-Oct-21 00:00N 24°33' W 052°37'0 0.2 27.6
2014-Oct-20 23:00N 24°33' W 052°37'1 0.3 27.6
2014-Oct-20 20:00N 24°32' W 052°37'1 0.4 27.5
2014-Oct-20 17:00N 24°32' W 052°39'0 0.0 27.6
2014-Oct-20 16:00N 24°32' W 052°39'2 1.8 27.6
2014-Oct-20 15:00N 24°34' W 052°38'0 0.0 27.6
2014-Oct-20 13:00N 24°34' W 052°38'0 0.1 27.6
2014-Oct-20 12:00N 24°34' W 052°38'0 0.0 27.6
2014-Oct-20 10:00N 24°34' W 052°38'1 1.0 27.6
2014-Oct-20 09:00N 24°35' W 052°38'0 0.0 27.6
2014-Oct-20 08:00N 24°35' W 052°38'2 0.7 27.7
2014-Oct-20 05:00N 24°37' W 052°39'0 0.0 27.7
2014-Oct-20 04:00N 24°37' W 052°39'2 0.5 27.7
2014-Oct-20 01:00N 24°38' W 052°40'1 0.2 27.7
2014-Oct-19 21:00N 24°38' W 052°41'1 0.9 27.7
2014-Oct-19 20:00N 24°38' W 052°42'1 0.6 27.8
2014-Oct-19 19:00N 24°37' W 052°42'0 0.0 27.8
2014-Oct-19 17:00N 24°37' W 052°42'0 0.0 27.8
2014-Oct-19 16:00N 24°37' W 052°42'1 0.7 27.8
2014-Oct-19 15:00N 24°38' W 052°41'0 0.2 27.8
2014-Oct-19 14:00N 24°37' W 052°41'0 0.0 27.8
2014-Oct-19 13:00N 24°37' W 052°41'0 0.1 27.7
2014-Oct-19 09:00N 24°38' W 052°41'0 0.0 27.7
2014-Oct-19 08:00N 24°38' W 052°41'4 0.5 27.7
2014-Oct-19 01:00N 24°41' W 052°41'1 0.8 27.7
2014-Oct-19 00:00N 24°42' W 052°41'1 0.3 27.7
2014-Oct-18 21:00N 24°43' W 052°42'1 0.8 27.8
2014-Oct-18 20:00N 24°43' W 052°41'1 0.5 27.8
2014-Oct-18 17:00N 24°43' W 052°42'0 0.0 28.0
2014-Oct-18 15:00N 24°43' W 052°42'1 0.2 28.0
2014-Oct-18 12:00N 24°44' W 052°42'0 0.0 27.7
2014-Oct-18 11:00N 24°44' W 052°42'0 0.0 27.7
2014-Oct-18 10:00N 24°44' W 052°42'2 1.8 27.7
2014-Oct-18 09:00N 24°45' W 052°40'0 0.0 27.7
2014-Oct-18 07:00N 24°45' W 052°40'0 0.0 27.7
2014-Oct-18 06:00N 24°45' W 052°40'2 1.8 27.7
2014-Oct-18 05:00N 24°46' W 052°39'1 0.3 27.7
2014-Oct-18 02:00N 24°47' W 052°39'0 0.0 27.8
2014-Oct-18 01:00N 24°47' W 052°39'2 0.8 27.8
2014-Oct-17 23:00N 24°49' W 052°39'2 1.8 27.8
2014-Oct-17 22:00N 24°50' W 052°39'0 0.0 27.8
2014-Oct-17 21:00N 24°50' W 052°39'0 0.0 27.8
2014-Oct-17 19:00N 24°50' W 052°39'1 0.4 27.9
2014-Oct-17 17:00N 24°51' W 052°40'0 0.0 27.9
2014-Oct-17 15:00N 24°51' W 052°40'1 0.9 27.8
2014-Oct-17 14:00N 24°51' W 052°39'0 0.1 27.8
2014-Oct-17 12:00N 24°51' W 052°39'0 0.0 27.7
2014-Oct-17 10:00N 24°51' W 052°39'1 0.5 27.7
2014-Oct-17 08:00N 24°51' W 052°38'0 0.0 27.7
2014-Oct-17 07:00N 24°51' W 052°38'0 0.0 27.7
2014-Oct-17 06:00N 24°51' W 052°38'5 0.8 27.7
2014-Oct-17 00:00N 24°54' W 052°33'0 0.0 27.8
2014-Oct-16 23:00N 24°54' W 052°33'0 0.0 27.8
2014-Oct-16 22:00N 24°54' W 052°33'2 0.8 27.8
2014-Oct-16 20:00N 24°55' W 052°32'1 0.1 27.8
2014-Oct-16 11:00N 24°56' W 052°31'0 0.0 27.8
2014-Oct-16 10:00N 24°56' W 052°31'1 0.2 27.8
2014-Oct-16 06:00N 24°55' W 052°31'7 0.6 27.8
2014-Oct-15 18:00N 24°56' W 052°22'0 0.1 28.0
2014-Oct-15 16:00N 24°56' W 052°22'3 0.8 28.0
2014-Oct-15 12:00N 24°56' W 052°19'1 0.2 28.0
2014-Oct-15 06:00N 24°56' W 052°18'   28.1
Track history (hours):
 
Tides and Currents Weather Stations Pressure Air Temp Water Temp Dewpoint Dewpoint Depression Visibility Wind Speed Wind Dir Waves Ship Positions

Drifting buoy 41607

Last reported at 2014-Oct-25 06:00 UTC. Time now 2014-Oct-25 09:31 UTC.
Position N 24°38' W 052°17'.

Water temperature 28.1 ° C

Date/timePositionNaut miles runAvg speedWind from/ knotsBaromVisibWave heightAir tempDewpointWater temp
2014-Oct-25 06:00N 24°38' W 052°17'1 0.5 28.1
2014-Oct-25 05:00N 24°37' W 052°17'0 0.0 28.2
2014-Oct-25 04:00N 24°37' W 052°17'0 0.1 28.3
2014-Oct-24 23:00N 24°37' W 052°17'0 0.5 29.0
2014-Oct-24 22:00N 24°37' W 052°18'1 0.8 29.1
2014-Oct-24 21:00N 24°36' W 052°18'0 0.0 29.4
2014-Oct-24 18:00N 24°36' W 052°18'1 1.0 30.1
2014-Oct-24 17:00N 24°36' W 052°19'0 0.1 29.9
2014-Oct-24 16:00N 24°36' W 052°19'0 0.1 29.5
2014-Oct-24 14:00N 24°36' W 052°19'1 1.4 28.6
2014-Oct-24 13:00N 24°34' W 052°20'0 0.0 28.2
2014-Oct-24 12:00N 24°34' W 052°20'0 0.0 27.9
2014-Oct-24 10:00N 24°34' W 052°20'0 0.3 27.8
2014-Oct-24 09:00N 24°34' W 052°20'1 0.8 27.9
2014-Oct-24 08:00N 24°34' W 052°20'0 0.0 27.9
2014-Oct-24 06:00N 24°34' W 052°20'1 0.3 28.0
2014-Oct-24 01:00N 24°33' W 052°21'1 0.8 28.2
2014-Oct-24 00:00N 24°33' W 052°20'0 0.0 28.2
2014-Oct-23 23:00N 24°33' W 052°20'0 0.3 28.4
2014-Oct-23 22:00N 24°33' W 052°21'1 0.3 28.5
2014-Oct-23 20:00N 24°33' W 052°21'1 0.5 29.0
2014-Oct-23 19:00N 24°33' W 052°22'2 0.5 29.3
2014-Oct-23 16:00N 24°32' W 052°23'0 0.0 28.8
2014-Oct-23 14:00N 24°32' W 052°23'1 0.5 28.3
2014-Oct-23 12:00N 24°31' W 052°24'0 0.0 27.8
2014-Oct-23 11:00N 24°31' W 052°24'0 0.1 27.7
2014-Oct-23 10:00N 24°31' W 052°24'0 0.1 27.7
2014-Oct-23 07:00N 24°31' W 052°24'0 0.4 27.8
2014-Oct-23 06:00N 24°31' W 052°25'1 0.4 27.8
2014-Oct-23 02:00N 24°31' W 052°27'0 0.0 27.9
2014-Oct-23 01:00N 24°31' W 052°27'0 0.0 28.0
2014-Oct-22 23:00N 24°31' W 052°27'1 0.2 28.1
2014-Oct-22 20:00N 24°30' W 052°27'0 0.2 28.3
2014-Oct-22 18:00N 24°30' W 052°27'1 0.8 28.4
2014-Oct-22 17:00N 24°30' W 052°28'0 0.0 28.4
2014-Oct-22 16:00N 24°30' W 052°28'2 0.9 28.3
2014-Oct-22 14:00N 24°30' W 052°30'0 0.0 27.9
2014-Oct-22 12:00N 24°30' W 052°30'0 0.0 27.7
2014-Oct-22 11:00N 24°30' W 052°30'0 0.0 27.7
2014-Oct-22 10:00N 24°30' W 052°30'0 0.2 27.6
2014-Oct-22 09:00N 24°30' W 052°30'0 0.4 27.7
2014-Oct-22 08:00N 24°30' W 052°30'0 0.0 27.7
2014-Oct-22 07:00N 24°30' W 052°30'2 0.2 27.7
2014-Oct-22 00:00N 24°30' W 052°32'1 0.9 27.8
2014-Oct-21 23:00N 24°30' W 052°33'0 0.0 27.9
2014-Oct-21 22:00N 24°30' W 052°33'0 0.0 27.9
2014-Oct-21 21:00N 24°30' W 052°33'0 0.0 28.0
2014-Oct-21 20:00N 24°30' W 052°33'0 0.2 28.1
2014-Oct-21 18:00N 24°31' W 052°33'0 0.1 28.0
2014-Oct-21 14:00N 24°31' W 052°33'2 0.4 27.8
2014-Oct-21 10:00N 24°32' W 052°34'0 0.1 27.6
2014-Oct-21 09:00N 24°32' W 052°34'1 0.7 27.6
2014-Oct-21 08:00N 24°32' W 052°35'1 0.2 27.6
2014-Oct-21 01:00N 24°33' W 052°36'1 1.4 27.6
2014-Oct-21 00:00N 24°33' W 052°37'0 0.2 27.6
2014-Oct-20 23:00N 24°33' W 052°37'1 0.3 27.6
2014-Oct-20 20:00N 24°32' W 052°37'1 0.4 27.5
2014-Oct-20 17:00N 24°32' W 052°39'0 0.0 27.6
2014-Oct-20 16:00N 24°32' W 052°39'2 1.8 27.6
2014-Oct-20 15:00N 24°34' W 052°38'0 0.0 27.6
2014-Oct-20 13:00N 24°34' W 052°38'0 0.1 27.6
2014-Oct-20 12:00N 24°34' W 052°38'0 0.0 27.6
2014-Oct-20 10:00N 24°34' W 052°38'1 1.0 27.6
2014-Oct-20 09:00N 24°35' W 052°38'0 0.0 27.6
2014-Oct-20 08:00N 24°35' W 052°38'2 0.7 27.7
2014-Oct-20 05:00N 24°37' W 052°39'0 0.0 27.7
2014-Oct-20 04:00N 24°37' W 052°39'2 0.5 27.7
2014-Oct-20 01:00N 24°38' W 052°40'1 0.2 27.7
2014-Oct-19 21:00N 24°38' W 052°41'1 0.9 27.7
2014-Oct-19 20:00N 24°38' W 052°42'1 0.6 27.8
2014-Oct-19 19:00N 24°37' W 052°42'0 0.0 27.8
2014-Oct-19 17:00N 24°37' W 052°42'0 0.0 27.8
2014-Oct-19 16:00N 24°37' W 052°42'1 0.7 27.8
2014-Oct-19 15:00N 24°38' W 052°41'0 0.2 27.8
2014-Oct-19 14:00N 24°37' W 052°41'0 0.0 27.8
2014-Oct-19 13:00N 24°37' W 052°41'0 0.1 27.7
2014-Oct-19 09:00N 24°38' W 052°41'0 0.0 27.7
2014-Oct-19 08:00N 24°38' W 052°41'4 0.5 27.7
2014-Oct-19 01:00N 24°41' W 052°41'1 0.8 27.7
2014-Oct-19 00:00N 24°42' W 052°41'1 0.3 27.7
2014-Oct-18 21:00N 24°43' W 052°42'1 0.8 27.8
2014-Oct-18 20:00N 24°43' W 052°41'1 0.5 27.8
2014-Oct-18 17:00N 24°43' W 052°42'0 0.0 28.0
2014-Oct-18 15:00N 24°43' W 052°42'1 0.2 28.0
2014-Oct-18 12:00N 24°44' W 052°42'0 0.0 27.7
2014-Oct-18 11:00N 24°44' W 052°42'0 0.0 27.7
2014-Oct-18 10:00N 24°44' W 052°42'2 1.8 27.7
2014-Oct-18 09:00N 24°45' W 052°40'0 0.0 27.7
2014-Oct-18 07:00N 24°45' W 052°40'0 0.0 27.7
2014-Oct-18 06:00N 24°45' W 052°40'2 1.8 27.7
2014-Oct-18 05:00N 24°46' W 052°39'1 0.3 27.7
2014-Oct-18 02:00N 24°47' W 052°39'0 0.0 27.8
2014-Oct-18 01:00N 24°47' W 052°39'2 0.8 27.8
2014-Oct-17 23:00N 24°49' W 052°39'2 1.8 27.8
2014-Oct-17 22:00N 24°50' W 052°39'0 0.0 27.8
2014-Oct-17 21:00N 24°50' W 052°39'0 0.0 27.8
2014-Oct-17 19:00N 24°50' W 052°39'1 0.4 27.9
2014-Oct-17 17:00N 24°51' W 052°40'0 0.0 27.9
2014-Oct-17 15:00N 24°51' W 052°40'1 0.9 27.8
2014-Oct-17 14:00N 24°51' W 052°39'0 0.1 27.8
2014-Oct-17 12:00N 24°51' W 052°39'0 0.0 27.7
2014-Oct-17 10:00N 24°51' W 052°39'1 0.5 27.7
2014-Oct-17 08:00N 24°51' W 052°38'0 0.0 27.7
2014-Oct-17 07:00N 24°51' W 052°38'0 0.0 27.7
2014-Oct-17 06:00N 24°51' W 052°38'5 0.8 27.7
2014-Oct-17 00:00N 24°54' W 052°33'0 0.0 27.8
2014-Oct-16 23:00N 24°54' W 052°33'0 0.0 27.8
2014-Oct-16 22:00N 24°54' W 052°33'2 0.8 27.8
2014-Oct-16 20:00N 24°55' W 052°32'1 0.1 27.8
2014-Oct-16 11:00N 24°56' W 052°31'0 0.0 27.8
2014-Oct-16 10:00N 24°56' W 052°31'1 0.2 27.8
2014-Oct-16 06:00N 24°55' W 052°31'7 0.6 27.8
2014-Oct-15 18:00N 24°56' W 052°22'0 0.1 28.0
2014-Oct-15 16:00N 24°56' W 052°22'3 0.8 28.0
2014-Oct-15 12:00N 24°56' W 052°19'1 0.2 28.0
2014-Oct-15 06:00N 24°56' W 052°18'   28.1

Dump ship's entire track history